Date String (YYYY-MM-DD hh:mm:ss) UTC,Instrument flags,absolute air pressure of the measurement (hPa),sample flow rate (lpm),inlet stack bypass flow (lpm),air temperature of the measurement (°C),ambient temperature measured by the external sensor (°C),aerosol sample conditioner tube jacket temperature (°C),OPC LED temperature (°C),internal box temperature (°C),relative humidity of the measurement (%),span deviation,mass concentration of particles derived from Lorenz-Mie calculation of OPC scattering (μg/m³),mass concentration of particles derived from Lorenz-Mie calculation of OPC scattering (μg/m³),mass concentration of particles derived from Lorenz-Mie calculation of OPC scattering (μg/m³)
DateTimeUTC,F1_M11,P_M11,Q1_M11,Q2_M11,T1_M11,T2_M11,T3_M11,T4_M11,T5_M11,U1_M11,ZSPAN_M11,X0_M11,X2_M11,X1_M11
2023-08-01 18:00:00,SystemResetWarning,0835.5,4.99,000.00,032.2,027.6,000.0,040.1,031.8,33.2,0000.0,0009.62,0005.66,0005.05
2023-08-01 18:01:00,SystemResetWarning,0835.5,4.99,000.00,032.2,027.7,000.0,040.0,031.9,33.5,0000.0,0009.38,0005.63,0005.05
2023-08-01 18:02:00,SystemResetWarning,0835.5,5.00,000.00,032.2,026.6,000.0,039.9,031.7,32.8,0000.0,0009.34,0005.62,0005.06
2023-08-01 18:03:00,SystemResetWarning,0835.4,5.00,000.00,032.1,025.5,000.0,039.8,031.5,33.1,0000.0,0009.77,0005.69,0005.11
2023-08-01 18:04:00,SystemResetWarning,0835.3,5.01,000.00,032.0,025.5,000.0,039.7,031.3,33.6,0000.0,0009.80,0005.73,0005.15
2023-08-01 18:05:00,SystemResetWarning,0835.3,5.00,000.00,031.8,025.8,000.0,039.7,031.2,34.1,0000.0,0009.86,0005.74,0005.14
2023-08-01 18:06:00,SystemResetWarning,0835.4,4.99,000.00,031.7,026.2,000.0,039.7,031.3,34.0,0000.0,0009.99,0005.77,0005.14
2023-08-01 18:07:00,SystemResetWarning,0835.4,4.98,000.00,031.6,026.6,000.0,039.7,031.4,34.8,0000.0,0009.98,0005.76,0005.14
2023-08-01 18:08:00,SystemResetWarning,0835.3,5.02,000.00,031.6,027.0,000.0,039.7,031.5,35.0,0000.0,0009.97,0005.73,0005.13
2023-08-01 18:09:00,SystemResetWarning,0835.3,5.01,000.00,031.7,027.4,000.0,039.7,031.6,34.5,0000.0,0009.86,0005.69,0005.12
2023-08-01 18:10:00,SystemResetWarning,0835.3,4.99,000.00,031.8,027.7,000.0,039.7,031.8,32.8,0000.0,0009.78,0005.67,0005.07
2023-08-01 18:11:00,SystemResetWarning,0835.4,4.98,000.00,031.9,027.3,000.0,039.6,031.8,32.6,0000.0,0009.49,0005.60,0005.01
2023-08-01 18:12:00,SystemResetWarning,0835.3,5.00,000.00,032.0,026.0,000.0,039.5,031.5,32.6,0000.0,0009.54,0005.57,0004.96
2023-08-01 18:13:00,SystemResetWarning,0835.2,5.00,000.00,031.9,025.4,000.0,039.4,031.4,32.7,0000.0,0009.56,0005.57,0004.94
2023-08-01 18:14:00,SystemResetWarning,0835.2,5.01,000.00,031.8,025.5,000.0,039.4,031.2,33.7,0000.0,0008.83,0005.49,0004.88
2023-08-01 18:15:00,SystemResetWarning,0835.2,5.01,000.00,031.6,025.9,000.0,039.4,031.2,33.1,0000.0,0008.82,0005.45,0004.83
2023-08-01 18:16:00,SystemResetWarning,0835.3,4.98,000.00,031.5,026.3,000.0,039.5,031.2,33.3,0000.0,0008.67,0005.40,0004.81
2023-08-01 18:17:00,SystemResetWarning,0835.3,5.00,000.00,031.5,026.8,000.0,039.5,031.3,33.3,0000.0,0008.55,0005.35,0004.78
2023-08-01 18:18:00,SystemResetWarning,0835.3,5.00,000.00,031.4,027.1,000.0,039.5,031.4,34.1,0000.0,0008.59,0005.34,0004.74
2023-08-01 18:19:00,SystemResetWarning,0835.3,5.01,000.00,031.4,027.5,000.0,039.5,031.5,34.3,0000.0,0008.49,0005.28,0004.70
2023-08-01 18:20:00,SystemResetWarning,0835.3,5.00,000.00,031.4,027.7,000.0,039.5,031.5,34.4,0000.0,0008.47,0005.24,0004.65
2023-08-01 18:21:00,SystemResetWarning,0835.3,4.99,000.00,031.4,027.6,000.0,039.4,031.6,34.0,0000.0,0008.38,0005.19,0004.64
2023-08-01 18:22:00,SystemResetWarning,0835.2,4.99,000.00,031.4,026.3,000.0,039.3,031.3,34.9,0000.0,0008.37,0005.18,0004.64
2023-08-01 18:23:00,SystemResetWarning,0835.1,5.02,000.00,031.4,025.5,000.0,039.2,031.2,35.1,0000.0,0008.25,0005.16,0004.63
2023-08-01 18:24:00,SystemResetWarning,0835.1,5.00,000.00,031.4,025.5,000.0,039.1,031.1,34.4,0000.0,0008.17,0005.12,0004.60
2023-08-01 18:25:00,SystemResetWarning,0835.1,4.98,000.00,031.3,025.9,000.0,039.2,031.1,34.6,0000.0,0008.23,0005.13,0004.59
2023-08-01 18:26:00,SystemResetWarning,0835.0,5.03,000.00,031.3,026.3,000.0,039.2,031.2,36.1,0000.0,0008.13,0005.08,0004.55
2023-08-01 18:27:00,SystemResetWarning,0835.0,5.01,000.00,031.5,026.7,000.0,039.2,031.4,34.9,0000.0,0008.18,0005.08,0004.52
2023-08-01 18:28:00,SystemResetWarning,0835.0,4.97,000.00,031.7,027.1,000.0,039.2,031.5,34.1,0000.0,0008.17,0005.06,0004.49
2023-08-01 18:29:00,SystemResetWarning,0835.1,5.01,000.00,031.8,027.4,000.0,039.3,031.6,33.8,0000.0,0008.06,0005.01,0004.46
2023-08-01 18:30:00,SystemResetWarning,0835.1,5.01,000.00,031.9,027.7,000.0,039.3,031.7,33.2,0000.0,0008.02,0004.98,0004.43
2023-08-01 18:31:00,SystemResetWarning,0835.0,4.98,000.00,032.0,027.0,000.0,039.3,031.6,33.6,0000.0,0008.02,0004.97,0004.41
2023-08-01 18:32:00,SystemResetWarning,0835.1,5.00,000.00,031.9,025.8,000.0,039.2,031.3,34.4,0000.0,0007.90,0004.92,0004.40
2023-08-01 18:33:00,SystemResetWarning,0835.0,5.01,000.00,031.9,025.5,000.0,039.2,031.2,34.3,0000.0,0007.89,0004.91,0004.39
2023-08-01 18:34:00,SystemResetWarning,0835.0,5.00,000.00,031.7,025.7,000.0,039.2,031.1,35.4,0000.0,0007.88,0004.89,0004.37
2023-08-01 18:35:00,SystemResetWarning,0835.0,5.00,000.00,031.7,026.1,000.0,039.3,031.2,35.0,0000.0,0007.86,0004.86,0004.36
2023-08-01 18:36:00,SystemResetWarning,0835.1,5.00,000.00,031.8,026.5,000.0,039.4,031.3,34.2,0000.0,0007.76,0004.80,0004.33
2023-08-01 18:37:00,SystemResetWarning,0835.0,5.01,000.00,031.9,026.9,000.0,039.4,031.4,33.5,0000.0,0007.74,0004.77,0004.29
2023-08-01 18:38:00,SystemResetWarning,0835.0,5.01,000.00,031.9,027.3,000.0,039.4,031.5,33.7,0000.0,0007.78,0004.74,0004.28
2023-08-01 18:39:00,SystemResetWarning,0835.0,4.98,000.00,031.9,027.6,000.0,039.5,031.6,35.0,0000.0,0008.11,0004.77,0004.30
2023-08-01 18:40:00,SystemResetWarning,0835.0,5.03,000.00,032.0,027.6,000.0,039.5,031.7,34.3,0000.0,0008.17,0004.83,0004.37
2023-08-01 18:41:00,SystemResetWarning,0834.9,4.96,000.00,032.1,026.4,000.0,039.4,031.6,34.3,0000.0,0008.49,0004.92,0004.44
2023-08-01 18:42:00,SystemResetWarning,0835.0,5.04,000.00,032.1,025.4,000.0,039.3,031.3,33.9,0000.0,0008.84,0004.98,0004.51
2023-08-01 18:43:00,SystemResetWarning,0834.9,4.97,000.00,032.1,025.4,000.0,039.3,031.2,33.8,0000.0,0009.56,0005.08,0004.57
2023-08-01 18:44:00,SystemResetWarning,0835.2,5.01,000.00,031.9,025.7,000.0,039.4,031.1,35.1,0000.0,0009.67,0005.15,0004.63
2023-08-01 18:45:00,SystemResetWarning,0834.9,5.01,000.00,031.9,026.2,000.0,039.4,031.2,34.3,0000.0,0009.80,0005.25,0004.68
2023-08-01 18:46:00,SystemResetWarning,0834.9,4.99,000.00,031.9,026.6,000.0,039.5,031.3,34.0,0000.0,0009.91,0005.34,0004.76
2023-08-01 18:47:00,SystemResetWarning,0834.9,5.02,000.00,031.9,027.0,000.0,039.5,031.4,34.0,0000.0,0010.17,0005.48,0004.84
2023-08-01 18:48:00,SystemResetWarning,0835.3,4.99,000.00,031.9,027.4,000.0,039.6,031.5,34.5,0000.0,0010.29,0005.55,0004.89
2023-08-01 18:49:00,SystemResetWarning,0835.3,4.99,000.00,032.0,027.7,000.0,039.6,031.6,34.7,0000.0,0010.31,0005.56,0004.91
2023-08-01 18:50:00,SystemResetWarning,0834.9,5.04,000.00,032.0,027.3,000.0,039.5,031.7,35.0,0000.0,0009.87,0005.53,0004.91
2023-08-01 18:51:00,SystemResetWarning,0834.7,4.96,000.00,032.1,025.9,000.0,039.4,031.5,34.0,0000.0,0009.79,0005.50,0004.90
2023-08-01 18:52:00,SystemResetWarning,0834.7,5.02,000.00,032.1,025.4,000.0,039.4,031.4,34.0,0000.0,0009.79,0005.51,0004.90
2023-08-01 18:53:00,SystemResetWarning,0834.9,5.00,000.00,032.0,025.5,000.0,039.4,031.2,34.3,0000.0,0009.71,0005.54,0004.91
2023-08-01 18:54:00,SystemResetWarning,0835.2,4.99,000.00,031.9,025.9,000.0,039.5,031.2,35.1,0000.0,0009.73,0005.53,0004.91
2023-08-01 18:55:00,SystemResetWarning,0835.0,5.02,000.00,031.9,026.3,000.0,039.5,031.3,34.6,0000.0,0010.34,0005.51,0004.89
2023-08-01 18:56:00,SystemResetWarning,0835.2,4.98,000.00,031.9,026.8,000.0,039.5,031.4,34.2,0000.0,0010.24,0005.43,0004.85
2023-08-01 18:57:00,SystemResetWarning,0834.9,5.00,000.00,031.9,027.1,000.0,039.6,031.5,35.0,0000.0,0010.20,0005.38,0004.80
2023-08-01 18:58:00,SystemResetWarning,0834.7,5.04,000.00,032.0,027.5,000.0,039.6,031.6,35.1,0000.0,0010.09,0005.32,0004.76
2023-08-01 18:59:00,SystemResetWarning,0835.1,4.95,000.00,032.2,027.6,000.0,039.6,031.8,33.5,0000.0,0010.10,0005.35,0004.77
